SCP
0 0 0 0 0 0 0 0 0 0 0 0 0 0 0 1 2 4 6 6 6 6 5 5 6 7 8 10 12 11 9 8 8 7 6 6 5 4 4 4 5 6 6 6
0 0 0 0 0 0 0 0 0 0 0 0 0 0 0 1 2 3 5 6 6 6 7 8 8 8 9 11 12 11 9 8 8 7 7 6 5 5 4 4 4 5 6 6
0 0 0 0 0 0 0 0 0 0 0 0 0 0 0 1 2 4 5 6 6 8 10 12 11 11 11 12 12 12 10 9 8 8 8 7 6 5 4 4 4 5 5 5
0 0 0 0 0 0 0 0 0 0 0 0 0 0 0 1 3 4 6 7 8 10 13 15 15 15 14 13 12 13 11 9 9 8 8 7 6 5 5 5 5 5 5 5
0 0 0 0 0 0 0 0 0 0 0 0 0 0 0 1 4 6 7 10 13 16 17 17 17 17 16 14 13 13 12 10 9 9 8 7 6 5 5 5 6 6 5 5
0 0 0 0 0 0 0 0 0 0 0 0 0 0 1 3 6 8 11 15 19 21 19 17 15 15 15 14 14 12 11 11 10 9 8 8 7 6 6 6 6 6 6 6
0 0 0 0 0 0 0 0 0 0 0 0 0 1 3 6 9 11 14 17 19 19 16 13 12 11 12 12 12 12 11 11 10 9 9 8 8 7 7 7 7 7 7 6
0 0 0 0 0 0 0 0 0 0 0 0 0 1 4 7 9 12 14 15 14 12 10 9 8 8 9 9 9 9 10 10 10 9 9 9 8 7 7 7 8 7 6 6
0 0 0 0 0 0 0 0 1 1 1 0 1 1 3 5 7 9 10 10 9 7 5 6 7 7 7 7 6 7 8 8 8 8 8 8 7 7 6 7 6 6 4 4
0 0 0 0 0 0 0 1 1 1 1 1 1 1 3 4 5 5 5 5 4 3 3 4 5 5 5 5 5 5 6 6 6 6 6 6 6 5 5 5 5 4 3 2
0 0 0 0 0 0 0 1 1 1 1 1 1 1 2 4 4 4 3 2 2 2 2 2 3 3 4 3 4 4 4 5 5 5 4 4 4 3 3 3 3 2 2 2
0 0 0 0 0 0 0 0 1 1 1 1 1 1 2 2 3 3 2 1 1 1 1 1 1 2 2 2 2 2 3 3 3 3 3 3 3 2 2 2 2 1 1 1
0 0 0 0 0 0 0 0 0 0 0 1 1 1 1 2 2 2 1 1 1 0 0 1 1 1 1 1 1 1 2 2 2 2 2 2 2 2 2 1 1 1 1 1
0 0 0 0 0 0 0 0 0 0 0 0 0 0 1 1 1 1 1 1 1 0 0 0 1 1 1 1 1 1 1 1 1 1 1 1 1 1 1 1 1 1 1 0
0 0 0 0 0 0 0 0 0 0 0 0 0 0 1 1 1 1 1 1 1 0 0 0 0 0 0 1 1 1 1 1 1 1 1 1 1 1 1 1 1 1 0 0
0 0 0 0 0 0 0 0 0 0 0 0 0 1 1 1 1 1 1 1 0 0 0 0 0 0 0 0 0 1 1 1 1 1 1 1 1 1 0 0 0 0 0 0
0 0 0 0 0 0 0 0 0 0 0 0 0 0 1 1 1 1 0 0 0 0 0 0 0 0 0 0 0 0 0 0 0 0 0 0 0 0 0 0 0 0 0 0
0 0 0 0 0 0 0 0 0 0 0 0 0 0 0 0 0 0 0 0 0 0 0 0 0 0 0 0 0 0 0 0 0 0 0 0 0 0 0 0 0 0 0 0
0 0 0 0 0 0 0 0 0 0 0 0 0 0 0 0 0 0 0 0 0 0 0 0 0 0 0 0 0 0 0 0 0 0 0 0 0 0 0 0 0 0 0 0
0 0 0 0 0 0 0 0 0 0 0 0 0 0 0 0 0 0 0 0 0 0 0 0 0 0 0 0 0 0 0 0 0 0 0 0 0 0 0 0 0 0 0 0
0 0 0 0 0 0 0 0 0 0 0 0 0 0 0 0 0 0 0 0 0 0 0 0 0 0 0 0 0 0 0 0 0 0 0 0 0 0 0 0 0 0 0 0
0 0 0 0 0 0 0 0 0 0 0 0 0 0 0 0 0 0 0 0 0 0 0 0 0 0 0 0 0 0 0 0 0 0 0 0 0 0 0 0 0 0 0 0
0 0 0 0 0 0 0 0 0 0 0 0 0 0 0 0 0 0 0 0 0 0 0 0 0 0 0 0 0 0 0 0 0 0 0 0 0 0 0 0 0 0 0 0
0 0 0 0 0 0 0 0 0 0 0 0 0 0 0 0 0 0 0 0 0 0 0 0 0 0 0 0 0 0 0 0 0 0 0 0 0 0 0 0 0 0 0 0
0 0 0 0 0 0 0 0 0 0 0 0 0 0 0 0 0 0 0 0 0 0 0 0 0 0 0 0 0 0 0 0 0 0 0 0 0 0 0 0 0 0 0 0
0 0 0 0 0 0 0 0 0 0 0 0 0 0 0 0 0 0 0 0 0 0 0 0 0 0 0 0 0 0 0 0 0 0 0 0 0 0 0 0 0 0 0 0
Wind_Speed
9 10 11 13 15 15 16 15 15 13 15 15 14 14 12 10 10 10 9 7 6 7 11 11 12 12 12 10 10 9 9 7 6 5 6 5 4 2 2 1 2 2 3 3
8 12 14 9 8 9 11 13 15 15 12 7 8 11 12 11 12 8 9 11 10 7 6 8 9 9 10 10 10 9 8 8 8 6 5 3 3 3 3 3 3 3 3 3
11 7 3 5 8 11 13 14 16 17 15 12 11 13 16 15 12 9 7 6 7 9 7 7 8 8 9 9 10 9 8 8 8 7 5 4 3 3 4 5 4 5 5 4
10 8 5 8 11 13 14 13 15 16 15 13 14 14 17 18 15 13 11 8 6 5 5 2 2 3 4 7 8 7 7 7 6 6 6 6 6 5 5 4 4 4 5 4
7 8 8 10 11 13 13 12 12 12 13 15 16 15 14 17 19 17 12 8 6 7 7 7 6 4 2 2 4 6 5 5 5 5 5 5 5 4 3 3 3 4 4 4
11 9 11 11 10 10 11 11 12 12 13 17 18 18 17 14 9 10 12 12 11 9 10 10 9 8 7 5 4 4 4 4 4 4 3 3 3 3 3 2 2 3 2 3
10 12 12 12 12 11 11 11 10 13 14 17 17 19 11 3 10 17 17 14 11 9 9 8 8 8 7 6 5 4 5 4 4 3 3 2 1 0 1 1 2 2 2 2
11 10 6 7 11 12 11 12 11 12 15 15 12 7 5 13 14 15 14 13 10 8 6 6 6 6 5 5 4 4 5 5 4 5 4 3 2 1 1 2 1 1 1 1
8 8 6 6 8 11 13 13 15 14 18 19 16 9 6 8 10 10 11 10 8 7 5 5 5 5 5 4 4 3 4 5 5 5 5 4 4 4 4 3 3 3 2 2
9 13 13 9 8 11 11 12 9 7 9 14 17 19 5 9 10 9 8 8 6 6 5 4 4 3 3 3 3 4 4 4 4 4 2 5 4 5 4 4 5 4 3 3
8 11 13 11 8 9 7 6 7 8 7 8 10 6 6 5 9 10 9 7 4 4 4 4 3 2 2 3 4 4 4 4 4 4 4 4 4 4 4 4 4 4 3 3
8 8 9 12 10 3 2 3 3 3 7 6 8 5 6 6 8 9 9 8 5 3 4 4 4 3 4 4 4 3 3 3 3 3 3 4 3 3 4 4 4 3 3 3
7 6 10 10 3 2 2 3 3 3 3 6 8 7 1 3 6 7 7 6 4 3 3 4 5 5 5 5 5 4 3 2 2 2 2 2 3 3 3 3 3 2 3 3
4 9 11 14 13 14 11 11 9 7 6 9 11 13 8 4 4 6 6 6 5 3 2 3 3 4 4 4 4 4 3 3 2 1 1 2 2 2 2 2 2 3 3 3
4 8 11 13 15 16 16 15 12 10 10 10 12 13 8 7 7 7 7 6 5 4 3 2 2 2 3 3 3 3 2 3 3 2 2 2 2 2 2 2 2 2 3 4
4 8 11 14 15 14 15 14 12 10 9 9 11 9 1 4 5 6 6 6 6 5 4 2 1 1 3 4 4 3 2 2 2 2 3 3 2 2 2 1 1 2 2 3
8 9 11 13 14 14 11 7 6 8 7 7 6 3 3 5 6 7 6 6 5 5 4 3 2 1 2 3 3 3 1 1 1 2 3 3 3 2 2 2 2 3 3 3
6 8 8 12 12 10 5 2 5 6 6 4 2 2 4 4 4 5 6 6 6 5 5 4 3 3 3 3 2 2 1 1 1 1 2 3 2 2 2 3 4 4 4 4
7 6 8 9 10 10 4 2 2 6 7 3 0 1 2 4 5 6 7 7 6 5 5 5 5 4 4 3 2 3 2 1 1 1 2 3 2 2 2 2 3 3 3 4
8 7 8 10 11 11 5 4 1 5 5 3 0 1 3 4 4 3 8 7 5 4 4 4 4 4 3 3 2 2 2 2 2 2 3 3 2 2 2 2 2 2 2 3
11 11 12 12 13 9 4 4 3 6 1 1 4 3 3 2 2 6 8 7 5 4 4 4 4 3 2 2 1 2 2 3 3 3 3 3 3 2 2 2 2 1 2 3
8 9 10 10 11 5 5 2 4 3 1 5 5 4 2 4 7 7 7 6 5 5 5 5 3 2 2 1 1 2 3 4 3 3 3 3 2 2 4 3 2 2 2 3
8 8 6 6 6 3 3 4 4 3 4 5 6 4 3 5 7 7 7 5 4 4 4 3 3 3 3 2 2 4 4 3 3 3 3 3 3 3 3 3 2 2 2 2
8 6 7 7 8 8 8 6 5 6 6 6 6 5 4 5 6 7 7 6 5 4 4 4 4 4 4 4 4 4 4 4 3 3 3 2 3 3 3 2 2 2 2 3
12 9 8 10 10 11 12 11 10 9 8 8 8 7 6 6 7 7 7 7 6 5 4 4 3 3 5 5 5 5 4 4 3 3 3 3 4 4 3 3 4 4 4 3
13 12 10 10 8 9 8 8 9 9 10 9 9 8 7 7 7 8 8 8 7 7 6 5 5 5 6 6 6 5 5 4 4 3 3 3 4 4 4 5 4 4 4 3
Wind_Direction
208 240 239 235 234 251 276 295 293 269 250 218 217 236 232 200 198 191 173 176 171 182 180 179 178 173 168 160 159 171 185 177 167 171 184 192 203 202 201 207 207 204 205 217
222 236 251 274 308 305 293 285 287 291 282 253 234 248 256 226 210 196 173 164 170 176 186 166 174 171 168 165 167 175 186 180 178 182 183 184 188 200 215 225 220 218 216 221
251 283 320 299 282 270 266 264 267 273 276 255 239 247 258 255 220 190 180 159 158 155 165 169 172 177 174 174 179 189 189 185 187 186 181 188 183 208 214 214 215 217 219 215
270 276 278 271 263 257 259 259 262 267 272 266 246 243 235 239 225 202 192 185 166 132 131 132 157 162 169 174 179 181 185 189 187 185 195 199 205 214 219 215 212 206 213 219
270 290 273 256 262 272 276 300 307 286 277 275 268 262 255 240 223 205 183 157 116 84 73 51 32 32 61 122 150 166 172 180 183 188 201 210 225 231 231 212 213 203 204 218
268 264 269 274 276 277 286 294 291 281 271 260 257 262 261 265 242 147 113 94 73 57 53 42 31 27 36 42 70 106 127 137 153 172 185 205 230 242 254 231 217 215 219 218
280 272 265 265 265 262 262 264 265 256 245 249 249 250 265 358 97 117 115 103 87 58 48 43 39 33 36 43 53 85 104 108 117 128 126 130 118 230 260 272 262 255 263 250
279 282 294 280 274 281 275 268 264 269 272 274 268 272 26 62 72 86 95 98 93 84 64 53 47 42 36 43 54 80 96 101 99 95 86 76 66 55 59 49 16 8 344 324
287 290 301 290 283 280 281 271 271 273 275 278 276 257 168 115 98 99 101 96 93 92 81 65 51 41 32 33 39 63 84 89 87 91 93 82 64 53 55 54 50 47 32 20
287 291 294 290 278 278 303 306 291 270 269 264 262 259 231 160 134 115 106 106 111 112 102 87 71 53 36 32 40 57 69 82 91 96 104 99 85 74 66 60 61 52 40 33
301 295 296 294 281 284 318 334 346 323 286 278 271 271 52 92 127 128 123 116 109 109 103 92 82 66 49 46 46 58 77 85 85 84 77 83 88 93 88 74 62 52 31 358
317 310 301 293 301 344 359 356 24 321 309 306 295 292 56 84 109 127 132 132 127 106 81 72 58 43 40 34 35 49 64 78 82 81 87 88 79 72 85 85 68 48 31 1
342 309 293 287 270 36 303 268 230 198 256 273 275 280 20 101 114 125 132 133 135 122 89 68 50 35 26 25 23 24 37 49 59 74 92 102 99 88 77 78 67 37 24 18
282 273 280 291 298 303 285 267 243 223 238 261 266 280 275 244 172 153 156 157 155 146 107 80 60 40 18 12 11 6 16 24 13 30 86 92 90 104 105 88 62 38 21 20
249 281 290 293 295 294 295 293 281 263 257 262 280 290 289 233 205 177 169 176 179 173 153 110 61 27 359 1 355 5 6 9 360 13 52 76 85 96 96 85 63 38 3 21
289 289 294 291 292 295 293 292 294 295 294 285 292 305 8 132 150 158 178 190 191 185 179 167 148 347 355 350 349 359 9 14 14 36 53 61 59 71 65 47 46 32 24 25
287 294 294 291 298 298 292 312 318 312 309 306 306 299 175 167 173 177 189 199 195 191 189 192 206 260 301 315 335 332 353 32 44 54 57 56 48 55 47 18 38 39 31 31
264 288 285 281 288 284 301 341 306 305 309 313 312 175 183 176 169 168 178 190 194 196 196 199 215 237 263 281 288 287 258 174 138 111 91 80 59 53 45 45 45 36 28 28
205 258 283 286 286 291 300 230 306 320 309 327 307 175 172 151 172 183 183 180 185 195 196 199 214 228 234 250 262 267 243 191 162 112 81 73 60 56 62 69 60 43 39 34
190 207 249 272 288 290 292 129 12 291 276 35 1 238 215 205 238 203 170 171 173 183 185 207 224 229 233 236 232 241 214 167 137 107 94 77 60 53 61 81 73 58 48 43
207 219 236 257 271 282 85 110 270 280 99 353 308 291 253 222 122 135 152 161 166 188 201 221 236 229 226 236 225 211 156 123 111 98 91 93 90 97 90 80 81 89 79 65
260 267 266 266 268 281 78 321 328 69 168 268 288 285 240 145 139 152 158 161 182 197 206 216 219 200 183 189 184 141 117 114 112 104 98 96 85 69 92 97 88 83 95 91
247 247 274 296 317 4 286 294 296 253 255 270 274 267 221 188 173 170 164 172 197 199 198 216 205 185 171 163 146 133 128 134 130 119 111 109 103 86 83 94 98 90 90 92
287 237 237 257 273 288 293 274 249 245 246 261 267 258 226 205 190 175 171 179 187 188 191 212 207 176 161 152 139 133 142 147 143 139 130 130 121 115 100 88 91 89 79 86
293 295 268 255 254 260 265 266 252 236 228 238 253 248 226 211 201 186 179 173 174 179 188 196 182 166 157 155 150 147 145 147 150 154 154 146 129 120 118 99 70 77 81 79
272 275 273 277 285 274 274 279 270 237 217 219 237 244 223 210 202 192 179 169 173 176 176 183 175 166 158 157 157 154 157 165 169 165 164 158 152 152 148 142 132 60 89 120